User: anonymous   Login
Location: Home
(51.5204°N, 2.5456°W)
Time: 04:48:17
(UTC+00:00)
Language:

XW-2F - Orbit

View from above orbital plane
View from above orbital plane
View from above satellite
View from above satellite

Ground track
Ground track

The orbit data is extracted from the following two-line orbital elements,

1 40910U 15049M   19348.79048014  .00000733  00000-0  39817-4 0  9996
2 40910  97.4647 349.9357 0013240 289.4350 244.2296 15.17591087234174
Epoch (UTC): 14 December 2019 18:58:17
Eccentricity: 0.0013240
inclination: 97.4647°
perigee height: 504 km
apogee height: 522 km
right ascension of ascending node: 349.9357°
argument of perigee: 289.4350°
revolutions per day: 15.17591087
mean anomaly at epoch: 244.2296°
orbit number at epoch: 23417

The dashed part of the orbit path shows where the satellite is in the earth's shadow,  

DLR